TimeEST,TemperatureF,Dew PointF,Humidity,Sea Level PressureIn,VisibilityMPH,Wind Direction,Wind SpeedMPH,Gust SpeedMPH,PrecipitationIn,Events,Conditions,WindDirDegrees,DateUTC
12:22 AM,44.6,37.4,76,29.83,10.0,WNW,12.7,25.3,N/A,,Mostly Cloudy,300,2012-12-19 05:22:00
12:50 AM,41.0,33.8,76,29.85,10.0,WNW,12.7,23.0,N/A,,Scattered Clouds,290,2012-12-19 05:50:00
12:53 AM,41.0,32.0,70,29.86,10.0,WNW,16.1,23.0,N/A,,Partly Cloudy,290,2012-12-19 05:53:00
1:53 AM,37.0,30.0,76,29.90,8.0,NW,9.2,-,N/A,,Clear,310,2012-12-19 06:53:00
2:53 AM,35.1,30.0,82,29.92,7.0,WNW,4.6,-,N/A,,Clear,300,2012-12-19 07:53:00
3:53 AM,34.0,30.0,85,29.94,7.0,WNW,6.9,-,N/A,,Clear,290,2012-12-19 08:53:00
4:53 AM,33.1,28.9,85,29.96,6.0,Calm,Calm,-,N/A,,Clear,0,2012-12-19 09:53:00
5:10 AM,33.8,28.4,81,29.95,6.0,Calm,Calm,-,N/A,,Mostly Cloudy,0,2012-12-19 10:10:00
5:21 AM,33.8,30.2,87,29.95,6.0,Calm,Calm,-,N/A,,Overcast,0,2012-12-19 10:21:00
5:53 AM,35.1,30.9,85,29.97,6.0,Variable,4.6,-,N/A,,Overcast,0,2012-12-19 10:53:00
6:53 AM,36.0,30.9,82,29.99,6.0,Calm,Calm,-,N/A,,Haze,0,2012-12-19 11:53:00
7:53 AM,36.0,32.0,86,30.01,5.0,Calm,Calm,-,N/A,,Overcast,0,2012-12-19 12:53:00
8:53 AM,37.0,32.0,82,30.02,5.0,ENE,3.5,-,N/A,,Haze,60,2012-12-19 13:53:00
9:53 AM,37.0,32.0,82,30.03,5.0,ENE,8.1,-,N/A,,Haze,70,2012-12-19 14:53:00
10:53 AM,39.0,33.1,79,30.05,6.0,East,6.9,-,N/A,,Haze,80,2012-12-19 15:53:00
11:53 AM,41.0,34.0,76,30.05,6.0,ESE,8.1,-,N/A,,Haze,110,2012-12-19 16:53:00
12:53 PM,41.0,34.0,76,30.04,8.0,ESE,8.1,-,N/A,,Clear,110,2012-12-19 17:53:00
1:53 PM,43.0,34.0,71,30.01,9.0,East,6.9,-,N/A,,Clear,100,2012-12-19 18:53:00
2:53 PM,45.0,35.1,68,30.02,10.0,SSE,8.1,-,N/A,,Clear,150,2012-12-19 19:53:00
3:53 PM,45.0,35.1,68,30.00,9.0,SE,8.1,-,N/A,,Clear,140,2012-12-19 20:53:00
4:53 PM,44.1,34.0,68,29.99,9.0,SE,8.1,-,N/A,,Partly Cloudy,130,2012-12-19 21:53:00
5:53 PM,44.1,34.0,68,29.98,9.0,ESE,11.5,-,N/A,,Mostly Cloudy,110,2012-12-19 22:53:00
6:53 PM,44.1,35.1,71,29.99,9.0,ESE,9.2,-,N/A,,Overcast,120,2012-12-19 23:53:00
7:53 PM,44.1,35.1,71,29.97,10.0,ESE,9.2,-,N/A,,Overcast,120,2012-12-20 00:53:00
8:53 PM,44.1,36.0,73,29.95,10.0,ESE,9.2,-,0.00,,Overcast,110,2012-12-20 01:53:00
9:53 PM,43.0,37.0,80,29.91,9.0,ESE,11.5,-,0.06,Rain,Light Rain,120,2012-12-20 02:53:00
10:53 PM,45.0,37.0,74,29.87,10.0,SE,12.7,-,N/A,,Mostly Cloudy,130,2012-12-20 03:53:00
11:53 PM,45.0,37.0,74,29.84,10.0,SE,11.5,-,N/A,,Scattered Clouds,130,2012-12-20 04:53:00